[[{"header":{"parameterUnit":"m.s-1","parameterCategory":1,"la1":30.2991,"la2":30.254,"lo1":-89.0895,"lo2":-89.0444,"dy":0.0017,"dx":0.0017,"nx":28,"ny":28,"refTime":"2023-10-17T09:00:00:Z","depth":0,"parameterNumber":2,"parameterNumberName":"U-component_of_WINDS"},"data":[0,0,0,0,0,0,0,0,0,0,0,0,0,0,0,0,0,0,0,0,0,0,0,0,0,0,0,0,0,0,0,0,0,0,0,0,0,0,0,0,0,0,0,0,0,0,0,0,0,0,0,0,0,0,0,0,0,0,-0.3432,-0.3431,0,-0.3343,-0.3342,-0.3341,-0.3263,-0.3262,-0.3261,-0.3261,-0.3168,-0.3166,-0.3165,0,0,0,0,0,0,0,0,0,0,0,0,0,-0.3535,-0.3534,-0.3432,-0.3431,-0.343,-0.3343,-0.3342,-0.334,-0.3263,-0.3262,-0.3261,-0.326,-0.3168,-0.3166,-0.3164,0,0,0,0,0,0,0,0,0,0,0,0,0,-0.3473,-0.3533,-0.3432,-0.3381,-0.3376,-0.3343,-0.3342,-0.334,-0.3264,-0.3262,-0.3261,-0.326,-0.3169,-0.3167,-0.3164,-0.3175,0,0,-0.3157,-0.3156,0,0,0,0,0,0,0,0,-0.3476,-0.3469,-0.339,-0.3385,-0.3378,-0.3313,-0.3344,-0.3285,-0.3264,-0.3306,-0.3261,-0.3259,-0.3217,-0.3211,-0.3197,-0.3171,-0.3167,-0.3156,-0.3155,-0.3154,-0.3153,0,0,0,0,0,0,0,-0.3481,-0.3472,-0.3397,-0.3389,-0.3382,-0.3362,-0.3352,-0.3332,-0.327,-0.3302,-0.3296,-0.3287,-0.3214,-0.3199,-0.3194,-0.3166,-0.3156,-0.3154,-0.3153,-0.3152,-0.3145,-0.3146,0,0,0,0,0,0,-0.3493,-0.3476,-0.34,-0.3394,-0.3425,-0.3361,-0.335,-0.3335,-0.327,-0.3259,-0.3288,-0.3284,-0.3204,-0.3197,-0.319,-0.3199,-0.3154,-0.3152,-0.315,-0.3144,-0.3145,-0.3147,0,0,0,0,0,0,-0.3496,-0.3487,-0.3403,-0.3434,-0.3422,-0.3361,-0.3345,-0.3334,-0.3319,-0.3259,-0.3248,-0.3285,-0.3203,-0.3194,-0.318,-0.3195,-0.315,-0.3148,-0.3142,-0.3144,-0.3146,-0.3218,0,0,0,0,0,0,-0.3499,-0.3488,-0.3492,-0.3434,-0.342,-0.3395,-0.3346,-0.3333,-0.3316,-0.3309,-0.3253,-0.3243,-0.3201,-0.3184,-0.3177,-0.3191,-0.3146,-0.314,-0.3143,-0.3145,-0.3214,-0.3222,-0.3229,0,0,0,0,0,-0.3503,-0.3516,-0.3493,-0.3484,-0.3424,-0.3396,-0.3388,-0.334,-0.3317,-0.332,-0.3282,-0.3245,-0.3195,-0.3183,-0.3175,-0.3188,-0.3139,-0.3142,-0.3145,-0.321,-0.322,-0.3229,0,0,0,0,0,0,-0.3576,-0.3507,-0.3481,-0.3476,-0.3442,-0.3383,-0.3385,-0.3352,-0.3324,-0.3319,-0.326,-0.3248,-0.3241,-0.3213,-0.3201,-0.3196,-0.3162,-0.3163,-0.3214,-0.3223,-0.3231,-0.3238,-0.3144,0,0,0,0,0,-0.3592,-0.3575,-0.3516,-0.3516,-0.3501,-0.3447,-0.3432,-0.3398,-0.3361,-0.3347,-0.3307,-0.3272,-0.3249,-0.3234,-0.3209,-0.3209,-0.3196,-0.3214,-0.3222,-0.3228,-0.3231,-0.3229,-0.3237,-0.3156,-0.3156,-0.3156,0,0,-0.3624,-0.3584,-0.3577,-0.353,-0.35,-0.3485,-0.3435,-0.342,-0.3407,-0.3344,-0.3329,-0.3299,-0.3256,-0.3249,-0.3244,-0.3226,-0.325,-0.3232,-0.3238,-0.3236,-0.3233,-0.3241,-0.3248,-0.3158,-0.3158,-0.3157,0,0,-0.3674,-0.3642,-0.364,-0.3611,-0.3567,-0.353,-0.353,-0.3476,-0.3453,-0.3437,-0.339,-0.3374,-0.3334,-0.3306,-0.3286,-0.3326,-0.3291,-0.332,-0.336,-0.3359,-0.3365,-0.3371,-0.3386,-0.3392,-0.3322,-0.3322,-0.3322,0,-0.372,-0.3694,-0.3643,-0.3631,-0.3612,-0.3554,-0.3552,-0.3526,-0.3476,-0.3464,-0.3444,-0.3393,-0.336,-0.3347,-0.3357,-0.3343,-0.334,-0.3326,-0.3369,-0.3374,-0.3378,-0.3392,-0.3397,-0.3326,-0.3326,-0.3325,-0.3325,0,-0.3752,-0.3735,-0.3738,-0.3692,-0.3673,-0.3666,-0.3614,-0.3601,-0.3569,-0.3534,-0.3519,-0.3477,-0.3443,-0.3437,-0.3405,-0.3419,-0.3409,-0.338,-0.3345,-0.339,-0.3402,-0.3407,-0.3331,-0.333,-0.3329,-0.3328,0,0,-0.3847,-0.3772,-0.3775,-0.3753,-0.37,-0.3686,-0.3676,-0.3643,-0.3633,-0.36,-0.3591,-0.3559,-0.3532,-0.351,-0.3474,-0.3474,-0.3509,-0.3444,-0.3442,-0.3458,-0.3523,-0.3546,-0.3553,-0.3485,-0.3486,-0.3487,-0.3526,0,-0.3889,-0.3868,-0.3822,-0.3816,-0.38,-0.3745,-0.3737,-0.3703,-0.3671,-0.3652,-0.3616,-0.3595,-0.356,-0.3547,-0.3544,-0.3506,-0.3521,-0.3502,-0.3476,-0.3476,-0.3489,-0.3559,-0.3583,-0.3622,-0.3531,-0.3531,-0.3532,0,-0.3935,-0.3907,-0.39,-0.3848,-0.3839,-0.3833,-0.3799,-0.3782,-0.3743,-0.3719,-0.3695,-0.3656,-0.3643,-0.361,-0.3591,-0.3579,-0.3566,-0.3545,-0.3546,-0.3542,-0.3507,-0.3558,-0.3634,-0.364,-0.3539,-0.3538,-0.3538,0,-0.4006,-0.3965,-0.3956,-0.3939,-0.3879,-0.3875,-0.385,-0.381,-0.3793,-0.3763,-0.3752,-0.3721,-0.3705,-0.3682,-0.3635,-0.3616,-0.3622,-0.3585,-0.3602,-0.3603,-0.3606,-0.3607,-0.3682,-0.3597,-0.3597,-0.3597,-0.3596,0,-0.4058,-0.4056,-0.3987,-0.3981,-0.3977,-0.3924,-0.3922,-0.3891,-0.3856,-0.3843,-0.3793,-0.3782,-0.3721,-0.3703,-0.3667,-0.3657,-0.365,-0.363,-0.3621,-0.3635,-0.3638,-0.3626,-0.3623,-0.3598,-0.3598,-0.3597,-0.3597,0,-0.4137,-0.409,-0.4076,-0.4021,-0.4006,-0.4006,-0.3958,-0.395,-0.3915,-0.39,-0.3893,-0.3838,-0.3814,-0.3766,-0.3728,-0.3704,-0.3703,-0.3685,-0.3717,-0.3711,-0.3731,-0.373,-0.3802,-0.3809,-0.3719,-0.372,-0.372,0,-0.4174,-0.4171,-0.4115,-0.4103,-0.408,-0.4061,-0.4044,-0.3992,-0.3976,-0.3932,-0.393,-0.3902,-0.3878,-0.3842,-0.3799,-0.377,-0.3752,-0.3779,-0.3747,-0.3762,-0.3754,-0.3755,-0.3754,-0.3787,-0.3788,-0.3789,-0.379,0,-0.4244,-0.4222,-0.4199,-0.4169,-0.4151,-0.4124,-0.4095,-0.4088,-0.4028,-0.4013,-0.3989,-0.397,-0.3932,-0.3906,-0.3871,-0.3844,-0.3808,-0.38,-0.3803,-0.3818,-0.3837,-0.3828,-0.3737,-0.3799,-0.3798,-0.3797,-0.3797,-0.3796,-0.4303,-0.4299,-0.4259,-0.4236,-0.4208,-0.4183,-0.4173,-0.4137,-0.4116,-0.4081,-0.4051,-0.403,-0.3991,-0.3941,-0.3916,-0.3899,-0.3881,-0.3884,-0.3885,-0.3887,-0.3894,-0.3839,-0.3892,-0.3892,-0.3891,-0.3891,-0.3891,0,-0.4372,-0.4344,-0.4323,-0.4285,-0.4267,-0.4234,-0.42,-0.4187,-0.4169,-0.4136,-0.4113,-0.4085,-0.4059,-0.4014,-0.3985,-0.3979,-0.3962,-0.3973,-0.3974,-0.3968,-0.3911,-0.3912,-0.3988,-0.3988,-0.3988,-0.3988,-0.3988,-0.3988,-0.4406,-0.4397,-0.4369,-0.4346,-0.4317,-0.4296,-0.428,-0.4256,-0.4229,-0.4201,-0.418,-0.415,-0.4113,-0.408,-0.4055,-0.4042,-0.4034,-0.4051,-0.4034,-0.3981,-0.3972,-0.3963,-0.3964,-0.405,-0.405,-0.4092,-0.4093,-0.4093]},{"header":{"parameterUnit":"m.s-1","parameterCategory":1,"la1":30.2991,"la2":30.254,"lo1":-89.0895,"lo2":-89.0444,"dy":0.0017,"dx":0.0017,"nx":28,"ny":28,"refTime":"2023-10-17T09:00:00:Z","depth":0,"parameterNumber":3,"parameterNumberName":"V-component_of_WINDS"},"data":[0,0,0,0,0,0,0,0,0,0,0,0,0,0,0,0,0,0,0,0,0,0,0,0,0,0,0,0,0,0,0,0,0,0,0,0,0,0,0,0,0,0,0,0,0,0,0,0,0,0,0,0,0,0,0,0,0,0,-0.8482,-0.8482,0,-0.8514,-0.8514,-0.8514,-0.8527,-0.8526,-0.8526,-0.8526,-0.856,-0.8561,-0.8562,0,0,0,0,0,0,0,0,0,0,0,0,0,-0.8433,-0.8434,-0.8482,-0.8482,-0.8483,-0.8514,-0.8514,-0.8514,-0.8527,-0.8526,-0.8526,-0.8526,-0.8559,-0.856,-0.8562,0,0,0,0,0,0,0,0,0,0,0,0,0,-0.8458,-0.8434,-0.8482,-0.8492,-0.8494,-0.8513,-0.8514,-0.8515,-0.8527,-0.8526,-0.8526,-0.8526,-0.8559,-0.856,-0.8562,-0.8574,0,0,-0.8566,-0.8567,0,0,0,0,0,0,0,0,-0.8457,-0.846,-0.849,-0.8492,-0.8493,-0.8516,-0.8509,-0.8534,-0.8527,-0.8514,-0.8526,-0.8526,-0.8545,-0.8548,-0.8554,-0.8575,-0.8577,-0.8566,-0.8567,-0.8568,-0.8568,0,0,0,0,0,0,0,-0.8455,-0.8459,-0.8494,-0.8491,-0.8492,-0.8496,-0.8499,-0.8514,-0.853,-0.8515,-0.8516,-0.852,-0.8546,-0.8553,-0.8555,-0.8577,-0.8566,-0.8568,-0.8569,-0.8569,-0.8611,-0.8611,0,0,0,0,0,0,-0.8451,-0.8457,-0.8493,-0.8495,-0.8474,-0.8497,-0.8501,-0.8509,-0.853,-0.8533,-0.852,-0.852,-0.855,-0.8553,-0.8556,-0.8572,-0.8568,-0.8569,-0.857,-0.8611,-0.8611,-0.8611,0,0,0,0,0,0,-0.845,-0.8455,-0.8492,-0.8477,-0.8482,-0.8498,-0.8507,-0.8509,-0.8516,-0.8533,-0.8537,-0.8524,-0.855,-0.8554,-0.857,-0.8574,-0.857,-0.8571,-0.8611,-0.8611,-0.8611,-0.8604,0,0,0,0,0,0,-0.8449,-0.8454,-0.8458,-0.8477,-0.8482,-0.8504,-0.8507,-0.851,-0.8519,-0.8519,-0.8538,-0.8541,-0.855,-0.8567,-0.8571,-0.8576,-0.8572,-0.861,-0.8611,-0.8611,-0.8604,-0.8604,-0.8605,0,0,0,0,0,-0.8447,-0.8455,-0.8459,-0.8463,-0.8488,-0.8505,-0.8508,-0.8519,-0.8519,-0.8524,-0.8535,-0.854,-0.8573,-0.8569,-0.8573,-0.8578,-0.861,-0.8611,-0.8611,-0.8604,-0.8604,-0.8605,0,0,0,0,0,0,-0.8437,-0.8458,-0.8462,-0.8476,-0.8488,-0.8507,-0.8513,-0.8518,-0.8531,-0.8532,-0.8545,-0.8549,-0.8563,-0.8572,-0.8568,-0.8592,-0.8592,-0.8593,-0.8585,-0.8585,-0.8586,-0.8583,-0.8574,0,0,0,0,0,-0.8436,-0.8447,-0.8465,-0.8476,-0.8482,-0.8496,-0.8504,-0.8511,-0.8525,-0.853,-0.8543,-0.8556,-0.8569,-0.8578,-0.8591,-0.8606,-0.861,-0.8611,-0.8612,-0.8612,-0.8613,-0.8622,-0.8623,-0.8613,-0.8613,-0.8613,0,0,-0.8435,-0.8448,-0.8454,-0.8474,-0.8485,-0.8497,-0.8501,-0.8513,-0.8522,-0.8532,-0.8548,-0.8557,-0.8573,-0.8588,-0.8596,-0.8596,-0.8617,-0.8612,-0.8612,-0.8613,-0.8623,-0.8624,-0.8625,-0.8613,-0.8613,-0.8613,0,0,-0.8439,-0.8449,-0.846,-0.8471,-0.8487,-0.8496,-0.8499,-0.8517,-0.8524,-0.8539,-0.8547,-0.8559,-0.8581,-0.8592,-0.8601,-0.861,-0.8616,-0.8614,-0.8615,-0.8624,-0.8625,-0.8626,-0.863,-0.8631,-0.8615,-0.8615,-0.8615,0,-0.8435,-0.8454,-0.8465,-0.8477,-0.8486,-0.8496,-0.8507,-0.8517,-0.8536,-0.8543,-0.8543,-0.8572,-0.8583,-0.8602,-0.8604,-0.8611,-0.8615,-0.8612,-0.8624,-0.8625,-0.8626,-0.863,-0.8632,-0.8615,-0.8615,-0.8615,-0.8615,0,-0.8449,-0.8461,-0.8468,-0.8487,-0.8497,-0.8508,-0.8522,-0.8531,-0.8537,-0.8547,-0.8563,-0.8577,-0.8594,-0.8599,-0.8605,-0.8619,-0.8619,-0.8621,-0.8622,-0.8626,-0.8631,-0.8632,-0.8615,-0.8615,-0.8615,-0.8615,0,0,-0.8447,-0.8473,-0.8475,-0.8484,-0.8503,-0.8513,-0.8526,-0.8542,-0.855,-0.8563,-0.8574,-0.8593,-0.8596,-0.8606,-0.8614,-0.8622,-0.863,-0.8624,-0.8624,-0.8625,-0.8647,-0.8645,-0.8647,-0.8633,-0.8634,-0.8634,-0.8645,0,-0.8454,-0.8477,-0.8488,-0.8506,-0.8518,-0.8528,-0.8539,-0.8552,-0.8562,-0.8574,-0.8585,-0.8598,-0.8601,-0.8607,-0.8615,-0.8627,-0.8634,-0.8626,-0.8645,-0.8645,-0.8641,-0.8649,-0.8647,-0.8657,-0.8647,-0.8647,-0.8648,0,-0.8465,-0.8479,-0.8498,-0.8517,-0.8522,-0.8532,-0.8548,-0.856,-0.8575,-0.8582,-0.8593,-0.8601,-0.8615,-0.8615,-0.8635,-0.8629,-0.8638,-0.8645,-0.8646,-0.8648,-0.8647,-0.8652,-0.866,-0.8662,-0.865,-0.865,-0.865,0,-0.8463,-0.8486,-0.8501,-0.8508,-0.853,-0.8537,-0.8546,-0.8562,-0.8571,-0.8586,-0.8592,-0.8608,-0.8617,-0.8629,-0.8641,-0.8639,-0.8661,-0.8661,-0.8667,-0.8667,-0.8672,-0.8672,-0.8682,-0.8676,-0.8676,-0.8676,-0.8676,0,-0.847,-0.8481,-0.85,-0.8509,-0.8523,-0.8536,-0.8549,-0.856,-0.8573,-0.8585,-0.8595,-0.8606,-0.8621,-0.8634,-0.8644,-0.866,-0.8663,-0.867,-0.8672,-0.8669,-0.8668,-0.8675,-0.8675,-0.8676,-0.8676,-0.8676,-0.8676,0,-0.8469,-0.8482,-0.8499,-0.8519,-0.8524,-0.8534,-0.8551,-0.856,-0.8571,-0.8586,-0.859,-0.8606,-0.8623,-0.8636,-0.8657,-0.8663,-0.868,-0.8683,-0.8675,-0.8677,-0.8683,-0.8682,-0.8699,-0.8702,-0.8693,-0.8693,-0.8693,0,-0.8473,-0.8482,-0.8503,-0.8512,-0.8521,-0.8535,-0.8545,-0.8558,-0.8568,-0.8587,-0.8595,-0.8612,-0.8626,-0.8651,-0.8665,-0.8682,-0.8685,-0.869,-0.8688,-0.8685,-0.8686,-0.8686,-0.8688,-0.869,-0.869,-0.869,-0.869,0,-0.8479,-0.8485,-0.8499,-0.8516,-0.8527,-0.8541,-0.8555,-0.8561,-0.8577,-0.8588,-0.8605,-0.8616,-0.8638,-0.8654,-0.8672,-0.8683,-0.869,-0.8691,-0.8693,-0.8691,-0.8686,-0.869,-0.8676,-0.869,-0.869,-0.869,-0.869,-0.869,-0.8481,-0.8491,-0.8507,-0.8523,-0.8534,-0.8547,-0.8558,-0.857,-0.8584,-0.8603,-0.861,-0.8627,-0.8644,-0.8669,-0.8679,-0.8693,-0.8694,-0.8697,-0.8699,-0.8699,-0.8699,-0.8683,-0.8696,-0.8696,-0.8697,-0.8697,-0.8697,0,-0.8488,-0.85,-0.8514,-0.8533,-0.8546,-0.8551,-0.8567,-0.8577,-0.8592,-0.8607,-0.8621,-0.8641,-0.8657,-0.8673,-0.8691,-0.8699,-0.8703,-0.8703,-0.8703,-0.8706,-0.8697,-0.8694,-0.87,-0.87,-0.87,-0.87,-0.87,-0.87,-0.8493,-0.851,-0.8518,-0.8541,-0.8552,-0.8569,-0.8578,-0.859,-0.8602,-0.8624,-0.8638,-0.8648,-0.8664,-0.8683,-0.8699,-0.8703,-0.8709,-0.8709,-0.8714,-0.8706,-0.8706,-0.8705,-0.8702,-0.871,-0.871,-0.8722,-0.8722,-0.8722]}]]